User: anonymous   Login
Location: Terra Rouge Observatory
(46.0000°N, 62.7500°W)
Time: 14:12:53
(UTC-04:00)
Language:

NOSS 3-1 (A) - Orbit

View from above orbital plane
View from above orbital plane
View from above satellite
View from above satellite

Ground track
Ground track

The orbit data is extracted from the following two-line orbital elements,

1 26905U 01040A   17007.73006736 0.00000000  00000-0  00000-0 0    07
2 26905  63.4200  83.2790 0358000 357.9510   2.0490 13.40744021    05
Epoch (UTC): 07 January 2017 17:31:17
Eccentricity: 0.0358000
inclination: 63.4200°
perigee height: 838 km
apogee height: 1374 km
right ascension of ascending node: 83.2790°
argument of perigee: 357.9510°
revolutions per day: 13.40744021
mean anomaly at epoch: 2.0490°
orbit number at epoch: 0

The dashed part of the orbit path shows where the satellite is in the earth's shadow,  

DLR